User: anonymous   Login
Location: Unspecified
(0.0000°N, 0.0000°E)
Time: 05:04:45
(UTC+00:00)
Language:

DNEPR OBJECT AB - Orbit

View from above orbital plane
View from above orbital plane
View from above satellite
View from above satellite

Ground track
Ground track

The orbit is defined by the following mean orbital elements,

1 39441U          26150.77596801 +.00000000 +00000-0 +31567-3 0 00006
2 39441  97.8892  90.1171 0067433 125.9933 234.7560 14.86539554    07
Epoch (UTC): 30 May 2026 18:37:23
Eccentricity: 0.0067433
inclination: 97.8892°
perigee height: 562 km
apogee height: 656 km
right ascension of ascending node: 90.1171°
argument of perigee: 125.9933°
revolutions per day: 14.86539554
mean anomaly at epoch: 234.7560°

The dashed part of the orbit path shows where the satellite is in the earth's shadow,  

DLR